Regional Weather Roundup
Issued by NWS

Home | Current Version | Previous Version | Graphics & Text | Print | Product List | Glossary On
Versions: 1 2 3 4 5 6 7 8 9 10 11 12 13 14 15 16 17 18 19 20 21 22 23 24 25 26 27 28 29 30 31 32 33 34 35 36 37 38 39 40 41 42 43 44 45 46 47 48 49 50
000
ASUS45 KBOU 032207
RWRCO

WEATHER ROUNDUP FOR COLORADO
NATIONAL WEATHER SERVICE DENVER/BOULDER CO
300 PM MST TUE MAR 03 2015

NOTE: "FAIR" INDICATES FEW OR NO CLOUDS BELOW 12000 FEET WITH NO
SIGNIFICANT WEATHER AND/OR OBSTRUCTIONS TO VISIBILITY.

COZ001>005-013-030-031-032300-
...NORTHWEST COLORADO...

CITY           SKY/WX    TMP DP  RH WIND       PRES   REMARKS
CRAIG          CLOUDY    32  26  78 SW14      29.68S WCI  22
HAYDEN         PTSUNNY   28  25  86 W18G24    29.67F WCI  16
MEEKER         LGT SNOW  32  26  78 W14       29.71R VSB 1   WCI  22
MOUNT WERNER   NOT AVBL
STEAMBOAT SPGS CLOUDY    29  25  83 W12       29.67R WCI  20
WALDEN         PTSUNNY   30  19  64 SW12      29.61F WCI  21
$$

COZ006>008-011-032300-
...WEST CENTRAL VALLEYS...

CITY           SKY/WX    TMP DP  RH WIND       PRES   REMARKS
GRAND JUNCTION PTSUNNY   40  33  76 NE8       29.73S
MONTROSE       PTSUNNY   40  25  55 S9G23     29.75F
EAGLE          LGT SNOW  34  28  80 W9G20     29.72R FOG     WCI  26
RIFLE          PTSUNNY   43  26  51 W16       29.69F
DELTA          PTSUNNY   46  27  48 SW17G23   29.73F
NUCLA          CLOUDY    39  27  60 SW24      29.80S
$$

COZ017>023-064>068-032300-
...SOUTHWEST COLORADO...

CITY           SKY/WX    TMP DP  RH WIND       PRES   REMARKS
DURANGO        LGT SNOW  32  26  78 NW13G18   29.80S WCI  22
CORTEZ         CLOUDY    37  30  75 MISG      29.81F
PAGOSA SPRINGS NOT AVBL
TELLURIDE      CLOUDY    27  20  75 SW6       29.76S WCI  20
WOLF CREEK PAS CLOUDY    12  12 100 SW13      29.73F WCI  -3
$$

COZ009-010-012-014-032>034-037-058>063-032300-
...CENTRAL COLORADO...

CITY           SKY/WX    TMP DP  RH WIND       PRES   REMARKS
ASPEN          CLOUDY    32  18  56 CALM      29.67F
BUENA VISTA    CLOUDY    33  21  61 S10G17    29.67R WCI  25
COPPER MTN     NOT AVBL
BERTHOUD PASS  CLOUDY    10   3  72 W20G26    29.61S THUNDER HAZE
COTTONWOOD PAS LGT SNOW  28  14  54 W12G26    29.67R WCI  18
GUNNISON       PTSUNNY   34  14  44 W14       29.72S WCI  24
KREMMLING      PTSUNNY   34  18  51 SW16G22   29.65F WCI  23
LEADVILLE      CLOUDY    22  11  62 S12       29.64S WCI  10
SALIDA         CLOUDY    36  22  57 W14       29.75R
SUNLIGHT       SNOW      21  19  93 S3          N/A  VSB 1/2
WILKERSON PASS CLOUDY    23  12  63 S6        29.66S WCI  16
$$

COZ069>075-032300-
...SAN LUIS VALLEY/SANGRE DE CRISTO MOUNTAINS...

CITY           SKY/WX    TMP DP  RH WIND       PRES   REMARKS
ALAMOSA        SUNNY     37  19  48 SW23G35   29.73S
LA VETA PASS   MOSUNNY   32  14  47 S21G36    29.72F WCI  20
SAGUACHE       MOSUNNY   39  21  48 S10G18    29.66F
$$

COZ035-036-038>040-032300-
...NORTHERN COLORADO FRONT RANGE...

CITY           SKY/WX    TMP DP  RH WIND       PRES   REMARKS
DENVER INTL AP CLOUDY    19  13  77 E5        29.82F WCI  12
DMNS CITY PARK   N/A     19  14  79 NE3       29.82F
AURORA         FLURRIES  18  14  84 NE6       29.81F WCI  10
FRONT RANGE AP NOT AVBL
ERIE MUNI ARPT LGT SNOW  22  15  75 E5        29.84S WCI  16
BOULDER MUN AP LGT SNOW  23  18  80 CALM      29.82F
CENTENNIAL     CLOUDY    18  14  84 NE6       29.79F WCI  10
BROOMFIELD     LGT SNOW  19  16  86 NE7       29.81  FOG     WCI  10
FORT COLLINS   MOSUNNY   25  12  58 E5        29.84F WCI  19
LONGMONT       LGT SNOW  26  16  66 SE5       29.86S WCI  21
$$

COZ041-046-047-076>085-087-088-032300-
...PIKES PEAK/PALMER DIVIDE AND SOUTHERN FOOTHILLS...

CITY           SKY/WX    TMP DP  RH WIND       PRES   REMARKS
COLO. SPRINGS  FLURRIES  26  19  74 E15       29.77R WCI  14
A. F. ACADEMY  CLOUDY    23  16  74 N2        29.74S
ELLICOTT       NOT AVBL
FALCON         CLOUDY    20  17  91 E13       29.76R WCI   7
FORT CARSON    SNOWSHWR  28  20  72 E8        29.76F FOG     WCI  19
LIMON          NOT AVBL
MONUMENT HILL  CLOUDY    18  14  86 NE6       29.73S FOG     WCI   9
TRINIDAD       CLOUDY    33  28  81 NE13      29.77R WCI  24
$$

COZ042>045-048>051-090-091-032300-
...NORTHEAST COLORADO...

CITY           SKY/WX    TMP DP  RH WIND       PRES   REMARKS
GREELEY ARPT   NOT AVBL
AKRON          CLOUDY    25  11  55 NE8       29.84F WCI  16
BURLINGTON     CLOUDY    28  15  58 N18       29.84F WCI  15
WRAY           PTSUNNY   31  13  45 N9G16     29.90S WCI  23
STERLING       MOSUNNY   28  12  50 NE8       29.88S WCI  20
HOLYOKE        NOT AVBL
FORT MORGAN    CLOUDY    25  11  57 NE3       29.87R
$$

COZ086-089-092>099-032300-
...SOUTHEAST COLORADO...

CITY           SKY/WX    TMP DP  RH WIND       PRES   REMARKS
PUEBLO         CLOUDY    31  23  72 NE14      29.80F WCI  21
LA JUNTA       CLOUDY    31  24  75 NE17      29.82S WCI  19
LAMAR          CLOUDY    31  23  72 NE17      29.84R WCI  19
SPRINGFIELD      N/A     33  28  81 NE17      29.79S WCI  22
$$



USA.gov is the U.S. government's official web portal to all federal, state and local government web resources and services.